DF9PM-13 Weather Reports


time (UTC)temp
C
wind
direction
speed
KPH
gust
KPH
rain 1hr
cm
rain 24hr
cm
rain mn
cm
humidity
%
barometer
mb
20260503233527 14 240 1.6 0.0 0.00 0.00 0.00 87 1013.8
20260503233027 14 240 1.6 0.0 0.00 0.00 0.00 87 1013.8
20260503232527 13 240 1.6 0.0 0.00 0.00 0.00 90 1013.8
20260503232027 14 240 1.6 0.0 0.00 0.00 0.00 86 1013.9
20260503231527 14 240 1.6 0.0 0.00 0.00 0.00 88 1013.9
20260503231027 13 200 3.2 0.0 0.00 0.00 0.00 91 1013.9
20260503230527 14 200 3.2 0.0 0.00 0.00 0.00 93 1013.9
20260503230027 15 200 3.2 0.0 0.00 0.00 0.00 88 1013.9
20260503225527 15 200 3.2 0.0 0.00 0.00 0.00 88 1013.8
20260503225027 15 200 3.2 0.0 0.00 0.00 0.00 90 1013.9
20260503224527 15 200 3.2 0.0 0.00 0.00 0.00 90 1013.9
20260503224027 15 190 4.8 0.0 0.00 0.00 0.00 91 1013.9
20260503223527 15 190 4.8 0.0 0.00 0.00 0.00 89 1013.9
20260503223027 15 190 4.8 0.0 0.00 0.00 0.00 89 1013.8
20260503222527 15 190 4.8 0.0 0.00 0.00 0.00 87 1013.9
20260503222026 16 190 4.8 0.0 0.00 0.00 0.00 86 1013.8
20260503221527 16 190 4.8 0.0 0.00 0.00 0.00 89 1013.8
20260503221026 15 200 3.2 0.0 0.00 0.00 0.00 92 1013.8
20260503220526 16 200 3.2 0.0 0.00 0.00 0.00 89 1013.8
20260503220026 15 200 3.2 0.0 0.00 0.00 0.00 93 1013.8
20260503215526 16 200 3.2 0.0 0.00 0.00 0.00 93 1013.7
20260503215026 16 200 3.2 0.0 0.00 0.00 0.00 91 1013.8
20260503214526 16 200 3.2 0.0 0.00 0.00 0.00 89 1013.8
20260503214026 16 200 3.2 0.0 0.00 0.00 0.00 89 1013.8
20260503213526 16 200 4.8 0.0 0.00 0.00 0.00 86 1013.7
20260503213026 16 200 4.8 0.0 0.00 0.00 0.00 90 1013.6
20260503212526 16 200 4.8 0.0 0.00 0.00 0.00 93 1013.6
20260503212026 16 230 4.8 0.0 0.00 0.00 0.00 89 1013.6
20260503211526 16 230 4.8 0.0 0.00 0.00 0.00 90 1013.6
20260503211026 16 230 8.0 0.0 0.00 0.00 0.00 91 1013.6
20260503210526 16 230 8.0 0.0 0.00 0.00 0.00 89 1013.6
20260503210026 16 230 11.3 0.0 0.00 0.00 0.00 89 1013.7
20260503205526 16 230 11.3 0.0 0.00 0.00 0.00 93 1013.7
20260503205025 16 230 11.3 0.0 0.00 0.00 0.00 99 1013.6
20260503204525 16 230 11.3 0.0 0.00 0.00 0.00 90 1013.6
20260503204025 17 220 9.7 0.0 0.00 0.00 0.00 88 1013.6
20260503203525 17 220 9.7 0.0 0.00 0.00 0.00 88 1013.6
20260503203025 17 220 9.7 0.0 0.00 0.00 0.00 81 1013.7
20260503202525 17 220 14.5 0.0 0.00 0.00 0.00 76 1013.7
20260503202025 17 220 14.5 0.0 0.00 0.00 0.00 75 1013.7
20260503201525 17 220 14.5 0.0 0.00 0.00 0.00 68 1013.8
20260503201025 17 220 14.5 0.0 0.00 0.00 0.00 66 1013.9
20260503200525 16 230 19.3 33.8 0.00 0.00 0.00 68 1013.9
20260503200025 17 230 19.3 33.8 0.00 0.00 0.00 66 1014.1
20260503195525 17 230 19.3 33.8 0.00 0.00 0.00 60 1014.0
20260503195025 17 230 19.3 33.8 0.00 0.00 0.00 55 1014.0
20260503194525 17 230 19.3 33.8 0.00 0.00 0.00 51 1013.9
20260503194025 17 230 19.3 33.8 0.00 0.00 0.00 49 1013.8
20260503193525 17 230 19.3 33.8 0.00 0.00 0.00 46 1013.9
20260503193025 18 240 11.3 0.0 0.00 0.00 0.00 44 1013.7
20260503192525 18 240 11.3 0.0 0.00 0.00 0.00 43 1013.7
20260503192024 18 240 16.1 0.0 0.00 0.00 0.00 41 1013.6
20260503191524 18 240 16.1 0.0 0.00 0.00 0.00 41 1013.4
20260503191024 18 250 11.3 0.0 0.00 0.00 0.00 42 1013.3
20260503190524 19 250 11.3 0.0 0.00 0.00 0.00 41 1013.3
20260503190024 19 250 11.3 0.0 0.00 0.00 0.00 41 1013.2
20260503185525 19 250 11.3 0.0 0.00 0.00 0.00 41 1013.1
20260503185024 19 250 11.3 0.0 0.00 0.00 0.00 40 1013.0
20260503184525 19 250 11.3 0.0 0.00 0.00 0.00 41 1013.0
20260503184024 20 250 12.9 0.0 0.00 0.00 0.00 43 1012.9
20260503183525 20 250 11.3 0.0 0.00 0.00 0.00 42 1012.8
20260503183024 20 250 12.9 0.0 0.00 0.00 0.00 42 1012.8
20260503182524 20 250 12.9 0.0 0.00 0.00 0.00 41 1012.9
20260503182024 20 250 12.9 0.0 0.00 0.00 0.00 41 1012.8
20260503181524 20 250 12.9 0.0 0.00 0.00 0.00 41 1012.7
20260503181024 21 250 12.9 0.0 0.00 0.00 0.00 40 1012.6
20260503180524 21 260 9.7 0.0 0.00 0.00 0.00 39 1012.6
20260503180024 21 260 9.7 0.0 0.00 0.00 0.00 39 1012.4
20260503175524 21 260 9.7 0.0 0.00 0.00 0.00 38 1012.4
20260503175023 21 260 9.7 0.0 0.00 0.00 0.00 37 1012.3
20260503174523 21 260 9.7 0.0 0.00 0.00 0.00 37 1012.3
20260503174023 21 220 11.3 0.0 0.00 0.00 0.00 36 1012.3
20260503173523 21 220 11.3 0.0 0.00 0.00 0.00 36 1012.2
20260503173023 21 220 11.3 0.0 0.00 0.00 0.00 37 1012.2
20260503172523 21 220 11.3 0.0 0.00 0.00 0.00 35 1012.2
20260503172023 21 220 11.3 0.0 0.00 0.00 0.00 35 1012.1
20260503171523 22 220 11.3 0.0 0.00 0.00 0.00 35 1012.1
20260503171023 22 220 11.3 0.0 0.00 0.00 0.00 36 1012.0
20260503170523 22 230 14.5 0.0 0.00 0.00 0.00 33 1012.0
20260503150522 23 190 8.0 0.0 0.00 0.00 0.00 27 1012.1
20260503131020 23 210 9.7 0.0 0.00 0.00 0.00 38 1013.0
20260503130520 23 230 14.5 0.0 0.00 0.00 0.00 39 1012.9
20260503110519 23 230 19.3 38.6 0.00 0.00 0.00 29 1013.6
20260503081517 20 180 0.0 0.0 0.00 0.00 0.00 56 1014.9
20260503081017 20 180 0.0 0.0 0.00 0.00 0.00 57 1014.9
20260503080517 20 180 1.6 0.0 0.00 0.00 0.00 50 1014.9
20260503072516 17 180 6.4 0.0 0.00 0.00 0.00 87 1015.2
20260503072016 16 180 6.4 0.0 0.00 0.00 0.00 86 1015.1
20260503071516 17 180 6.4 0.0 0.00 0.00 0.00 82 1015.0
20260503071016 16 180 6.4 0.0 0.00 0.00 0.00 83 1015.0
20260503070516 16 180 6.4 0.0 0.00 0.00 0.00 86 1015.1
20260503055015 13 221 3.2 19.3 0.00 0.00 0.00 10 1014.7
20260503054515 13 221 3.2 19.3 0.00 0.00 0.00 10 1014.7
20260503054015 13 200 0.0 1.6 0.00 0.00 0.00 98 1014.6
20260503053515 13 200 0.0 1.6 0.00 0.00 0.00 10 1014.6
20260503053015 13 200 0.0 1.6 0.00 0.00 0.00 10 1014.6
20260503052515 13 200 1.6 3.2 0.00 0.00 0.00 10 1014.5
20260503052015 13 200 0.0 1.6 0.00 0.00 0.00 10 1014.5
20260503051515 13 200 0.0 1.6 0.00 0.00 0.00 10 1014.6
20260503051015 13 200 0.0 1.6 0.00 0.00 0.00 10 1014.6
20260503050514 13 200 1.6 3.2 0.00 0.00 0.00 10 1014.5
20260503050015 13 200 1.6 3.2 0.00 0.00 0.00 10 1014.5
20260503045514 12 213 0.0 1.6 0.00 0.00 0.00 10 1014.6
20260503045014 12 213 0.0 1.6 0.00 0.00 0.00 10 1014.5
20260503044514 13 213 1.6 3.2 0.00 0.00 0.00 10 1014.5
20260503044014 12 213 1.6 3.2 0.00 0.00 0.00 10 1014.5
20260503043514 12 213 1.6 3.2 0.00 0.00 0.00 10 1014.6
20260503043014 12 213 3.2 4.8 0.00 0.00 0.00 10 1014.6
20260503042514 12 213 3.2 4.8 0.00 0.00 0.00 10 1014.6
20260503042014 12 213 3.2 4.8 0.00 0.00 0.00 10 1014.5
20260503041514 12 213 0.0 1.6 0.00 0.00 0.00 10 1014.5
20260503041014 12 213 0.0 1.6 0.00 0.00 0.00 10 1014.6
20260503040514 12 213 0.0 1.6 0.00 0.00 0.00 10 1014.4
20260503040014 12 213 1.6 3.2 0.00 0.00 0.00 10 1014.5
20260503035514 12 213 1.6 3.2 0.00 0.00 0.00 10 1014.3
20260503035014 12 213 1.6 3.2 0.00 0.00 0.00 10 1014.2
20260503034513 12 213 3.2 4.8 0.00 0.00 0.00 10 1014.2
20260503034013 12 213 3.2 4.8 0.00 0.00 0.00 10 1014.3
20260503033513 12 199 0.0 1.6 0.00 0.00 0.00 10 1014.3
20260503033013 12 199 0.0 1.6 0.00 0.00 0.00 10 1014.1
20260503032513 12 199 0.0 1.6 0.00 0.00 0.00 10 1014.4
20260503032013 12 199 1.6 3.2 0.00 0.00 0.00 10 1014.5
20260503031513 12 199 1.6 3.2 0.00 0.00 0.00 10 1014.4
20260503031013 12 199 1.6 3.2 0.00 0.00 0.00 10 1014.4
20260503030513 12 199 0.0 1.6 0.00 0.00 0.00 10 1014.4
20260503030013 12 199 0.0 1.6 0.00 0.00 0.00 10 1014.4
20260503025513 12 199 1.6 3.2 0.00 0.00 0.00 10 1014.5
20260503025013 12 199 1.6 3.2 0.00 0.00 0.00 10 1014.5
20260503024513 12 199 1.6 3.2 0.00 0.00 0.00 10 1014.6
20260503024013 12 195 0.0 1.6 0.00 0.00 0.00 10 1014.4
20260503023513 13 195 1.6 3.2 0.00 0.00 0.00 10 1014.4
20260503023013 12 195 1.6 3.2 0.00 0.00 0.00 10 1014.5
20260503022513 13 195 1.6 3.2 0.00 0.00 0.00 10 1014.6
20260503022012 13 195 0.0 1.6 0.00 0.00 0.00 10 1014.5
20260503021512 13 195 1.6 3.2 0.00 0.00 0.00 10 1014.7
20260503021012 13 195 1.6 3.2 0.00 0.00 0.00 10 1014.7
20260503020512 13 195 1.6 3.2 0.00 0.00 0.00 10 1014.8
20260503020012 13 195 0.0 1.6 0.00 0.00 0.00 10 1014.8
20260503015512 13 195 0.0 1.6 0.00 0.00 0.00 10 1014.7
20260503015012 13 195 0.0 1.6 0.00 0.00 0.00 10 1014.8
20260503014512 13 195 1.6 3.2 0.00 0.00 0.00 10 1014.7
20260503014012 13 195 1.6 3.2 0.00 0.00 0.00 10 1014.7
20260503013512 13 195 1.6 3.2 0.00 0.00 0.00 10 1014.8
20260503013012 14 224 0.0 0.0 0.00 0.00 0.00 99 1014.7
20260503012512 14 224 0.0 0.0 0.00 0.00 0.00 98 1014.7
20260503012012 13 224 0.0 0.0 0.00 0.00 0.00 10 1014.8
20260503011512 14 224 1.6 1.6 0.00 0.00 0.00 97 1014.8
20260503011012 14 224 1.6 1.6 0.00 0.00 0.00 95 1014.8
20260503010512 14 224 0.0 0.0 0.00 0.00 0.00 96 1014.8
20260503010012 14 224 0.0 0.0 0.00 0.00 0.00 95 1014.8
20260503005512 14 224 0.0 0.0 0.00 0.00 0.00 95 1014.8
20260503005011 15 224 1.6 1.6 0.00 0.00 0.00 92 1014.8
20260503004511 15 224 1.6 1.6 0.00 0.00 0.00 92 1014.8
20260503004011 15 226 0.0 0.0 0.00 0.00 0.00 93 1014.9
20260503003511 15 226 0.0 0.0 0.00 0.00 0.00 92 1014.9
20260503003011 15 226 0.0 0.0 0.00 0.00 0.00 89 1015.0
20260503002511 15 226 1.6 1.6 0.00 0.00 0.00 89 1014.9
20260503002011 15 226 1.6 1.6 0.00 0.00 0.00 88 1014.9
20260503001511 15 130 0.0 0.0 0.00 0.00 0.00 88 1015.0
20260503001011 15 130 0.0 0.0 0.00 0.00 0.00 86 1015.0
20260503000511 15 130 0.0 0.0 0.00 0.00 0.00 86 1015.0
20260503000011 15 130 1.6 0.0 0.00 0.00 0.00 84 1014.9
20260502235511 16 130 1.6 0.0 0.00 0.00 0.00 84 1015.0
20260502235011 15 130 1.6 0.0 0.00 0.00 0.00 85 1015.1
20260502234511 16 241 0.0 1.6 0.00 0.00 0.00 84 1015.0
20260502234011 16 241 0.0 1.6 0.00 0.00 0.00 82 1015.0